{"data":{"norad_id":61846,"epoch":"2026-09-21T05:02:12.374016Z","epoch_age_seconds":127101,"freshness":"FRESH","line1":"1 61846U 24202B   26264.20986544 -.00001105  00000+0 -30655-4 0  9994","line2":"2 61846  43.0012 203.0935 0000776 275.9731  84.1032 15.27573669105356","mean_motion":15.27573669,"eccentricity":7.76e-5,"inclination_deg":43.0012,"raan_deg":203.0935,"arg_perigee_deg":275.9731,"mean_anomaly_deg":84.1032,"bstar":-3.0655e-5,"rev_number":10535,"period_min":94.267139400398,"perigee_km":482.53562388455,"apogee_km":483.60048290884,"semimajor_km":6861.2050533967,"source":"CELESTRAK","updated_at":"2026-09-22T09:00:49.439704Z"}}